Language: 


Des rapports , des résumés tant et plus, au choix de chacun....


Données statistiques de la station
Quotidien Rapport Février 9, 2017 Unités:  Métrique    Anglais   les deux
« Précédent Jour
Suivant Jour »
Quotidien Hebdomadaire Mensuel Annuel Actuel
  Haut: Bas: Moyen:
Température: -17.8 °C -17.3 °C -16.6 °C
Pt de rosée: -17.8 °C -17.6 °C -16.8 °C
Humidité: Humidity % 96 % 98 %
Vitesse du vent: 0 km/h 2.3 km/h 14.2 km/h
Rafales: 0 km/h - -
Vent:- - ENE
Pression: 0 hPa 34601.5 hPa -
Précipitation: 0 mm    
Historical Graphs
 
 
Données statistiques pour Février 9, 2017
Heure Température Point de rosée Pression Vent Vitesse du vent Refales Humidité Pluie (taux horaire)
-17.8 °C -17.8 °C 0 hPa Calm     Humidity % 0 mm
00:03 -16.3 °C -16.5 °C 34774.2 hPa NNW 14 km/h 20.9 km/h 97 % 0 mm
00:08 -16.3 °C -16.5 °C 34774.2 hPa NNE 14.5 km/h 20.9 km/h 97 % 0 mm
00:13 -16.3 °C -16.5 °C 34774.2 hPa NNE 16.9 km/h 22.5 km/h 97 % 0 mm
00:18 -16.3 °C -16.4 °C 34774.2 hPa NE 16.3 km/h 22.5 km/h 98 % 0 mm
00:23 -16.3 °C -16.4 °C 34774.2 hPa NNE 7.6 km/h 20.3 km/h 98 % 0 mm
00:28 -16.3 °C -16.4 °C 34774.2 hPa NE 12.7 km/h 20.3 km/h 98 % 0 mm
00:33 -16.3 °C -16.4 °C 34774.2 hPa NNE 11.1 km/h 19.2 km/h 98 % 0 mm
00:38 -16.3 °C -16.4 °C 34774.2 hPa North 14 km/h 19.2 km/h 98 % 0 mm
00:43 -16.3 °C -16.4 °C 34774.2 hPa NNE 8 km/h 15.6 km/h 98 % 0 mm
00:48 -16.3 °C -16.4 °C 34774.2 hPa NNE 15.6 km/h 19.6 km/h 98 % 0 mm
00:53 -16.3 °C -16.4 °C 34740.4 hPa NE 11.1 km/h 19.6 km/h 98 % 0 mm
00:58 -16.3 °C -16.4 °C 34740.4 hPa NNE 8.9 km/h 16.3 km/h 98 % 0 mm
01:03 -16.3 °C -16.4 °C 34740.4 hPa NNE 8.9 km/h 16.3 km/h 98 % 0 mm
01:08 -16.3 °C -16.4 °C 34774.2 hPa North 9.8 km/h 16.9 km/h 98 % 0 mm
01:13 -16.3 °C -16.4 °C 34774.2 hPa NE 12.7 km/h 16.9 km/h 98 % 0 mm
01:18 -16.3 °C -16.4 °C 34774.2 hPa NE 16.3 km/h 16.9 km/h 98 % 0 mm
01:23 -16.3 °C -16.4 °C 34774.2 hPa NE 12.7 km/h 18.7 km/h 98 % 0 mm
01:28 -16.3 °C -16.4 °C 34774.2 hPa NE 16.3 km/h 18.7 km/h 98 % 0 mm
01:33 -16.3 °C -16.4 °C 34774.2 hPa NE 14.5 km/h 16.3 km/h 98 % 0 mm
01:38 -16.3 °C -16.5 °C 34774.2 hPa NE 16.3 km/h 19.2 km/h 98 % 0 mm
01:43 -16.3 °C -16.5 °C 34774.2 hPa NE 15.6 km/h 20.3 km/h 98 % 0 mm
01:48 -16.4 °C -16.6 °C 34774.2 hPa NE 15 km/h 20.3 km/h 98 % 0 mm
01:53 -16.4 °C -16.6 °C 34774.2 hPa NE 17.4 km/h 19.6 km/h 98 % 0 mm
01:58 -16.4 °C -16.6 °C 34774.2 hPa NE 15 km/h 19.6 km/h 98 % 0 mm
02:03 -16.5 °C -16.6 °C 34774.2 hPa NE 16.9 km/h 20.9 km/h 98 % 0 mm
02:08 -16.5 °C -16.6 °C 34740.4 hPa NE 15 km/h 20.9 km/h 98 % 0 mm
02:13 -16.5 °C -16.6 °C 34740.4 hPa NNE 19.6 km/h 20.9 km/h 98 % 0 mm
02:18 -16.5 °C -16.6 °C 34740.4 hPa NE 9.3 km/h 19.6 km/h 98 % 0 mm
02:23 -16.5 °C -16.6 °C 34774.2 hPa NE 14.5 km/h 22.5 km/h 98 % 0 mm
02:28 -16.5 °C -16.7 °C 34774.2 hPa NNE 8.9 km/h 22.5 km/h 98 % 0 mm
02:33 -16.5 °C -16.7 °C 34774.2 hPa NNE 16.3 km/h 20.9 km/h 98 % 0 mm
02:38 -16.5 °C -16.7 °C 34740.4 hPa NNE 15 km/h 20.3 km/h 98 % 0 mm
02:43 -16.5 °C -16.7 °C 34740.4 hPa ENE 14.5 km/h 20.3 km/h 98 % 0 mm
02:48 -16.5 °C -16.7 °C 34740.4 hPa ENE 14 km/h 17.9 km/h 98 % 0 mm
02:53 -16.5 °C -16.7 °C 34774.2 hPa NNE 19.6 km/h 19.6 km/h 98 % 0 mm
02:58 -16.5 °C -16.7 °C 34774.2 hPa NNE 17.4 km/h 20.3 km/h 98 % 0 mm
03:03 -16.5 °C -16.7 °C 34774.2 hPa NNE 20.9 km/h 20.9 km/h 98 % 0 mm
03:08 -16.6 °C -16.7 °C 34774.2 hPa NE 19.2 km/h 20.9 km/h 98 % 0 mm
03:13 -16.6 °C -16.7 °C 34774.2 hPa NE 14 km/h 20.9 km/h 98 % 0 mm
03:18 -16.6 °C -16.7 °C 34774.2 hPa NNE 11.1 km/h 20.9 km/h 98 % 0 mm
03:23 -16.6 °C -16.7 °C 34740.4 hPa NE 19.2 km/h 20.9 km/h 98 % 0 mm
03:28 -16.6 °C -16.8 °C 34740.4 hPa NNE 12.7 km/h 20.9 km/h 98 % 0 mm
03:33 -16.6 °C -16.8 °C 34740.4 hPa North 14.5 km/h 20.9 km/h 98 % 0 mm
03:38 -16.6 °C -16.8 °C 34774.2 hPa NE 16.3 km/h 20.9 km/h 98 % 0 mm
03:43 -16.6 °C -16.8 °C 34774.2 hPa NNE 10.3 km/h 19.6 km/h 98 % 0 mm
03:48 -16.6 °C -16.8 °C 34774.2 hPa NE 8.9 km/h 19.6 km/h 98 % 0 mm
03:53 -16.6 °C -16.8 °C 34740.4 hPa NNE 14.5 km/h 17.4 km/h 98 % 0 mm
03:58 -16.6 °C -16.8 °C 34740.4 hPa NE 10.3 km/h 16.9 km/h 98 % 0 mm
04:03 -16.6 °C -16.8 °C 34740.4 hPa North 14.5 km/h 19.6 km/h 98 % 0 mm
04:08 -16.6 °C -16.8 °C 34740.4 hPa NNE 16.3 km/h 19.6 km/h 98 % 0 mm
04:13 -16.6 °C -16.8 °C 34740.4 hPa NE 16.9 km/h 20.9 km/h 98 % 0 mm
04:18 -16.7 °C -16.8 °C 34740.4 hPa NE 19.2 km/h 22 km/h 98 % 0 mm
04:23 -16.7 °C -16.8 °C 34740.4 hPa NE 14 km/h 22.5 km/h 98 % 0 mm
04:28 -16.7 °C -16.8 °C 34740.4 hPa ENE 22 km/h 22.5 km/h 98 % 0 mm
04:33 -16.7 °C -16.8 °C 34740.4 hPa NE 19.6 km/h 22.5 km/h 98 % 0 mm
04:38 -16.7 °C -16.8 °C 34740.4 hPa NE 16.3 km/h 22.5 km/h 98 % 0 mm
04:43 -16.7 °C -16.8 °C 34740.4 hPa NE 15.6 km/h 22.5 km/h 98 % 0 mm
04:48 -16.7 °C -16.9 °C 34740.4 hPa NE 16.9 km/h 22.5 km/h 98 % 0 mm
04:53 -16.7 °C -16.8 °C 34740.4 hPa NE 15 km/h 22.5 km/h 98 % 0 mm
04:58 -16.7 °C -16.9 °C 34740.4 hPa NE 19.2 km/h 26.2 km/h 98 % 0 mm
05:03 -16.7 °C -16.9 °C 34740.4 hPa NE 14 km/h 26.2 km/h 98 % 0 mm
05:08 -16.7 °C -16.9 °C 34740.4 hPa NE 19.6 km/h 26.2 km/h 98 % 0 mm
05:13 -16.7 °C -16.9 °C 34740.4 hPa NE 15 km/h 22 km/h 98 % 0 mm
05:18 -16.7 °C -16.9 °C 34740.4 hPa NE 20.3 km/h 22 km/h 98 % 0 mm
05:23 -16.7 °C -16.9 °C 34740.4 hPa NE 22 km/h 22 km/h 98 % 0 mm
05:28 -16.7 °C -16.9 °C 34740.4 hPa NE 9.3 km/h 22 km/h 98 % 0 mm
05:33 -16.7 °C -16.9 °C 34740.4 hPa NNE 19.6 km/h 22.5 km/h 98 % 0 mm
05:38 -16.8 °C -16.9 °C 34740.4 hPa NE 19.2 km/h 22.5 km/h 98 % 0 mm
05:43 -16.8 °C -16.9 °C 34740.4 hPa NE 16.3 km/h 22.5 km/h 98 % 0 mm
05:48 -16.8 °C -16.9 °C 34740.4 hPa NE 14 km/h 23 km/h 98 % 0 mm
05:53 -16.8 °C -16.9 °C 34740.4 hPa NE 15 km/h 23 km/h 98 % 0 mm
05:58 -16.8 °C -16.9 °C 34740.4 hPa ENE 16.3 km/h 22.5 km/h 98 % 0 mm
06:03 -16.8 °C -16.9 °C 34740.4 hPa NE 15.6 km/h 22.5 km/h 98 % 0 mm
06:08 -16.8 °C -16.9 °C 34740.4 hPa NE 16.3 km/h 24.8 km/h 98 % 0 mm
06:13 -16.8 °C -16.9 °C 34740.4 hPa NE 15.6 km/h 24.8 km/h 98 % 0 mm
06:18 -16.8 °C -16.9 °C 34740.4 hPa NNE 16.3 km/h 20.3 km/h 98 % 0 mm
06:23 -16.8 °C -16.9 °C 34740.4 hPa NE 14.5 km/h 20.3 km/h 98 % 0 mm
06:28 -16.8 °C -17 °C 34740.4 hPa NE 14 km/h 22.5 km/h 98 % 0 mm
06:33 -16.8 °C -17 °C 34740.4 hPa NNE 16.9 km/h 22.5 km/h 98 % 0 mm
06:38 -16.8 °C -16.9 °C 34740.4 hPa NE 16.9 km/h 22 km/h 98 % 0 mm
06:43 -16.8 °C -16.9 °C 34740.4 hPa NE 14.5 km/h 20.3 km/h 98 % 0 mm
06:48 -16.8 °C -16.9 °C 34740.4 hPa NNE 15.6 km/h 20.3 km/h 98 % 0 mm
06:53 -16.8 °C -16.9 °C 34740.4 hPa NE 15 km/h 20.3 km/h 98 % 0 mm
06:58 -16.8 °C -17 °C 34740.4 hPa NE 15.6 km/h 22.5 km/h 98 % 0 mm
07:03 -16.8 °C -16.9 °C 34740.4 hPa NE 11.1 km/h 22.5 km/h 98 % 0 mm
07:08 -16.8 °C -16.9 °C 34740.4 hPa NNE 12.7 km/h 19.6 km/h 98 % 0 mm
07:13 -16.8 °C -16.9 °C 34740.4 hPa NNE 9.8 km/h 19.2 km/h 98 % 0 mm
07:18 -16.8 °C -16.9 °C 34740.4 hPa NE 14 km/h 20.9 km/h 98 % 0 mm
07:23 -16.8 °C -16.9 °C 34740.4 hPa NNW 19.6 km/h 20.9 km/h 98 % 0 mm
07:28 -16.8 °C -16.9 °C 34740.4 hPa NNE 16.3 km/h 20.9 km/h 98 % 0 mm
07:33 -16.8 °C -16.9 °C 34740.4 hPa NE 15.6 km/h 19.6 km/h 98 % 0 mm
07:38 -16.8 °C -16.9 °C 34740.4 hPa NE 12.7 km/h 19.2 km/h 98 % 0 mm
07:43 -16.8 °C -16.9 °C 34740.4 hPa NNE 11.1 km/h 19.2 km/h 98 % 0 mm
07:48 -16.8 °C -16.9 °C 34740.4 hPa NE 10.3 km/h 20.9 km/h 98 % 0 mm
07:53 -16.8 °C -17 °C 34740.4 hPa NNE 12.2 km/h 20.9 km/h 98 % 0 mm
07:58 -16.8 °C -17 °C 34740.4 hPa NE 16.9 km/h 20.3 km/h 98 % 0 mm
08:03 -16.8 °C -16.9 °C 34740.4 hPa North 14.5 km/h 19.6 km/h 98 % 0 mm
08:08 -16.8 °C -17 °C 34740.4 hPa NNE 19.6 km/h 19.6 km/h 98 % 0 mm
08:13 -16.8 °C -17 °C 34740.4 hPa NE 14.5 km/h 20.9 km/h 98 % 0 mm
08:18 -16.8 °C -17 °C 34740.4 hPa NE 10.3 km/h 20.9 km/h 98 % 0 mm
08:22 -16.8 °C -16.9 °C 34740.4 hPa NE 12.7 km/h 19.6 km/h 98 % 0 mm
08:27 -16.8 °C -17 °C 34740.4 hPa NNE 15.6 km/h 20.9 km/h 98 % 0 mm
08:28 -16.8 °C -17 °C 34740.4 hPa NE 16.9 km/h 20.9 km/h 98 % 0 mm
08:33 -16.8 °C -17 °C 34740.4 hPa NNE 16.9 km/h 22 km/h 98 % 0 mm
08:38 -16.8 °C -17 °C 34740.4 hPa NE 16.3 km/h 22 km/h 98 % 0 mm
08:43 -16.8 °C -17 °C 34740.4 hPa NE 19.6 km/h 22 km/h 98 % 0 mm
08:48 -16.8 °C -17 °C 34740.4 hPa NE 14.5 km/h 22 km/h 98 % 0 mm
08:53 -16.8 °C -17 °C 34740.4 hPa NE 15 km/h 20.9 km/h 98 % 0 mm
08:58 -16.8 °C -17 °C 34740.4 hPa NE 16.3 km/h 20.9 km/h 98 % 0 mm
09:03 -16.8 °C -17 °C 34740.4 hPa NE 16.3 km/h 20.9 km/h 98 % 0 mm
09:08 -16.8 °C -17 °C 34774.2 hPa ENE 12.2 km/h 19.6 km/h 98 % 0 mm
09:13 -16.8 °C -16.9 °C 34774.2 hPa NE 15 km/h 19.6 km/h 98 % 0 mm
09:18 -16.8 °C -16.9 °C 34774.2 hPa NE 15.6 km/h 26.2 km/h 98 % 0 mm
09:23 -16.8 °C -16.9 °C 34740.4 hPa NE 16.9 km/h 26.2 km/h 98 % 0 mm
09:28 -16.8 °C -16.9 °C 34740.4 hPa NE 14.5 km/h 20.3 km/h 98 % 0 mm
09:33 -16.8 °C -17 °C 34740.4 hPa NE 17.4 km/h 22.5 km/h 98 % 0 mm
09:38 -16.8 °C -17 °C 34740.4 hPa NNE 9.8 km/h 22.5 km/h 98 % 0 mm
09:43 -16.8 °C -17 °C 34740.4 hPa NE 16.3 km/h 22.5 km/h 98 % 0 mm
09:48 -16.8 °C -17 °C 34740.4 hPa ENE 16.9 km/h 22.5 km/h 98 % 0 mm
09:53 -16.8 °C -17 °C 34740.4 hPa ENE 14 km/h 20.9 km/h 98 % 0 mm
09:58 -16.8 °C -17 °C 34740.4 hPa ENE 12.2 km/h 20.3 km/h 98 % 0 mm
10:03 -16.8 °C -17 °C 34740.4 hPa NNE 19.2 km/h 22 km/h 98 % 0 mm
10:08 -16.8 °C -17 °C 34740.4 hPa NNE 14.5 km/h 22 km/h 98 % 0 mm
10:13 -16.8 °C -17 °C 34740.4 hPa NE 16.9 km/h 20.9 km/h 98 % 0 mm
10:18 -16.9 °C -17.1 °C 34740.4 hPa NE 14 km/h 23.8 km/h 98 % 0 mm
10:23 -16.9 °C -17.1 °C 34740.4 hPa NE 19.2 km/h 23.8 km/h 98 % 0 mm
10:28 -16.9 °C -17.1 °C 34740.4 hPa NE 15 km/h 22.5 km/h 98 % 0 mm
10:33 -16.8 °C -17 °C 34740.4 hPa NE 16.3 km/h 22.5 km/h 98 % 0 mm
10:38 -16.8 °C -17 °C 34740.4 hPa NE 22 km/h 22.5 km/h 98 % 0 mm
10:43 -16.8 °C -17 °C 34740.4 hPa NNE 19.6 km/h 22 km/h 98 % 0 mm
10:48 -16.8 °C -17 °C 34740.4 hPa NE 19.6 km/h 22.5 km/h 98 % 0 mm
10:53 -16.8 °C -16.9 °C 34740.4 hPa NE 12.7 km/h 22.5 km/h 98 % 0 mm
10:58 -16.7 °C -16.9 °C 34740.4 hPa NE 15 km/h 20.9 km/h 98 % 0 mm
11:03 -16.7 °C -16.9 °C 34740.4 hPa NE 20.3 km/h 20.3 km/h 98 % 0 mm
11:08 -16.7 °C -16.9 °C 34740.4 hPa NE 16.9 km/h 20.3 km/h 98 % 0 mm
11:13 -16.7 °C -16.8 °C 34740.4 hPa NNE 15 km/h 20.9 km/h 98 % 0 mm
11:18 -16.7 °C -16.8 °C 34740.4 hPa ENE 19.2 km/h 22.5 km/h 98 % 0 mm
11:23 -16.6 °C -16.8 °C 34740.4 hPa ENE 16.3 km/h 22.5 km/h 98 % 0 mm
11:28 -16.6 °C -16.8 °C 34740.4 hPa NE 18.7 km/h 22.5 km/h 98 % 0 mm
11:33 -16.6 °C -16.7 °C 34740.4 hPa East 16.9 km/h 22.5 km/h 98 % 0 mm
11:38 -16.6 °C -16.7 °C 34740.4 hPa ENE 15.6 km/h 22 km/h 98 % 0 mm
11:43 -16.6 °C -16.7 °C 34740.4 hPa NNE 14.5 km/h 19.2 km/h 98 % 0 mm
11:48 -16.6 °C -16.7 °C 34740.4 hPa NE 9.8 km/h 18.7 km/h 98 % 0 mm
11:53 -16.6 °C -16.7 °C 34740.4 hPa NE 14.5 km/h 19.6 km/h 98 % 0 mm
11:58 -16.5 °C -16.7 °C 34740.4 hPa ENE 16.3 km/h 19.6 km/h 98 % 0 mm
12:03 -16.5 °C -16.7 °C 34740.4 hPa NE 14.5 km/h 18.7 km/h 98 % 0 mm
12:08 -16.5 °C -16.6 °C 34740.4 hPa NE 15.6 km/h 16.9 km/h 98 % 0 mm
12:13 -16.5 °C -16.6 °C 34740.4 hPa NE 12.2 km/h 16.9 km/h 98 % 0 mm
12:18 -16.5 °C -16.6 °C 34740.4 hPa NNE 16.3 km/h 16.9 km/h 98 % 0 mm
12:23 -16.5 °C -16.6 °C 34740.4 hPa East 14 km/h 17.4 km/h 98 % 0 mm
12:28 -16.5 °C -16.6 °C 34740.4 hPa ENE 15.6 km/h 19.2 km/h 98 % 0 mm
12:33 -16.5 °C -16.6 °C 34740.4 hPa ENE 9.3 km/h 19.2 km/h 98 % 0 mm
12:38 -16.5 °C -16.6 °C 34703.1 hPa ENE 9.3 km/h 16.3 km/h 98 % 0 mm
12:43 -16.5 °C -16.6 °C 34703.1 hPa ENE 14 km/h 16.3 km/h 98 % 0 mm
12:48 -16.4 °C -16.6 °C 34703.1 hPa ENE 15 km/h 16.3 km/h 98 % 0 mm
12:53 -16.4 °C -16.6 °C 34703.1 hPa NE 15.6 km/h 16.3 km/h 98 % 0 mm
12:58 -16.3 °C -16.5 °C 34703.1 hPa NE 11.1 km/h 16.3 km/h 98 % 0 mm
13:03 -16.3 °C -16.5 °C 34703.1 hPa NE 14.5 km/h 16.9 km/h 98 % 0 mm
13:08 -16.3 °C -16.5 °C 34703.1 hPa ENE 9.8 km/h 17.4 km/h 98 % 0 mm
13:13 -16.3 °C -16.4 °C 34703.1 hPa NNE 15.6 km/h 17.4 km/h 98 % 0 mm
13:18 -16.3 °C -16.4 °C 34703.1 hPa NE 11.6 km/h 15.6 km/h 98 % 0 mm
13:23 -16.3 °C -16.4 °C 34703.1 hPa NE 9.3 km/h 15.6 km/h 98 % 0 mm
13:28 -16.3 °C -16.4 °C 34703.1 hPa NNE 9.3 km/h 16.3 km/h 98 % 0 mm
13:33 -16.3 °C -16.4 °C 34703.1 hPa NE 8 km/h 16.9 km/h 98 % 0 mm
13:38 -16.3 °C -16.4 °C 34703.1 hPa NE 15.6 km/h 19.6 km/h 98 % 0 mm
13:43 -16.3 °C -16.4 °C 34703.1 hPa NE 14.5 km/h 19.6 km/h 98 % 0 mm
13:48 -16.3 °C -16.4 °C 34703.1 hPa NE 8 km/h 17.9 km/h 98 % 0 mm
13:53 -16.3 °C -16.4 °C 34703.1 hPa NE 9.8 km/h 17.9 km/h 98 % 0 mm
13:58 -16.3 °C -16.4 °C 34703.1 hPa NE 16.3 km/h 16.9 km/h 98 % 0 mm
14:03 -16.3 °C -16.4 °C 34703.1 hPa NE 10.3 km/h 19.2 km/h 98 % 0 mm
14:08 -16.2 °C -16.3 °C 34703.1 hPa ENE 11.1 km/h 19.2 km/h 98 % 0 mm
14:13 -16.2 °C -16.3 °C 34703.1 hPa NNE 12.7 km/h 18.7 km/h 98 % 0 mm
14:18 -16.2 °C -16.3 °C 34703.1 hPa ENE 11.1 km/h 18.7 km/h 98 % 0 mm
14:23 -16.2 °C -16.3 °C 34703.1 hPa ENE 11.6 km/h 16.3 km/h 98 % 0 mm
14:28 -16.2 °C -16.3 °C 34703.1 hPa NNE 16.9 km/h 19.6 km/h 98 % 0 mm
14:33 -16.2 °C -16.3 °C 34703.1 hPa NE 14 km/h 19.6 km/h 98 % 0 mm
14:38 -16.2 °C -16.3 °C 34703.1 hPa NE 11.1 km/h 19.6 km/h 98 % 0 mm
14:43 -16.2 °C -16.3 °C 34703.1 hPa NE 19.6 km/h 23.8 km/h 98 % 0 mm
14:48 -16.3 °C -16.4 °C 34703.1 hPa NE 20.3 km/h 23.8 km/h 98 % 0 mm
14:53 -16.3 °C -16.4 °C 34703.1 hPa NE 11.1 km/h 22 km/h 98 % 0 mm
14:58 -16.3 °C -16.4 °C 34703.1 hPa NE 15.6 km/h 22 km/h 98 % 0 mm
15:03 -16.3 °C -16.4 °C 34703.1 hPa ENE 15.6 km/h 24.3 km/h 98 % 0 mm
15:08 -16.3 °C -16.4 °C 34703.1 hPa NNE 14.5 km/h 24.3 km/h 98 % 0 mm
15:13 -16.3 °C -16.4 °C 34703.1 hPa NE 14.5 km/h 22.5 km/h 98 % 0 mm
15:18 -16.3 °C -16.4 °C 34703.1 hPa NE 15 km/h 24.3 km/h 98 % 0 mm
15:23 -16.3 °C -16.4 °C 34703.1 hPa NE 11.1 km/h 24.3 km/h 98 % 0 mm
15:28 -16.3 °C -16.4 °C 34703.1 hPa NE 15.6 km/h 20.9 km/h 98 % 0 mm
15:33 -16.3 °C -16.4 °C 34703.1 hPa ENE 19.2 km/h 20.9 km/h 98 % 0 mm
15:38 -16.3 °C -16.4 °C 34669.3 hPa NE 15 km/h 19.6 km/h 98 % 0 mm
15:43 -16.3 °C -16.4 °C 34669.3 hPa NE 15 km/h 19.6 km/h 98 % 0 mm
15:48 -16.3 °C -16.4 °C 34669.3 hPa ENE 15 km/h 22 km/h 98 % 0 mm
15:53 -16.3 °C -16.4 °C 34669.3 hPa NNE 16.9 km/h 22.5 km/h 98 % 0 mm
15:58 -16.3 °C -16.4 °C 34669.3 hPa East 11.1 km/h 22.5 km/h 98 % 0 mm
16:03 -16.3 °C -16.4 °C 34669.3 hPa ENE 16.9 km/h 22 km/h 98 % 0 mm
16:08 -16.3 °C -16.4 °C 34635.4 hPa NE 10.3 km/h 20.9 km/h 98 % 0 mm
16:13 -16.3 °C -16.4 °C 34635.4 hPa ENE 16.9 km/h 17.9 km/h 98 % 0 mm
16:18 -16.3 °C -16.4 °C 34635.4 hPa ENE 9.8 km/h 18.7 km/h 98 % 0 mm
16:23 -16.3 °C -16.4 °C 34635.4 hPa ENE 10.3 km/h 18.7 km/h 98 % 0 mm
16:28 -16.2 °C -16.3 °C 34635.4 hPa ENE 17.9 km/h 18.7 km/h 98 % 0 mm
16:33 -16.2 °C -16.3 °C 34635.4 hPa NE 14.5 km/h 22.5 km/h 98 % 0 mm
16:38 -16.2 °C -16.3 °C 34635.4 hPa East 14 km/h 22.5 km/h 98 % 0 mm
16:43 -16.2 °C -16.3 °C 34635.4 hPa ENE 10.3 km/h 19.6 km/h 98 % 0 mm
16:48 -16.2 °C -16.3 °C 34635.4 hPa NE 12.7 km/h 19.6 km/h 98 % 0 mm
16:53 -16.3 °C -16.4 °C 34635.4 hPa East 8.9 km/h 19.6 km/h 98 % 0 mm
16:58 -16.3 °C -16.4 °C 34635.4 hPa ENE 16.3 km/h 17.4 km/h 98 % 0 mm
17:03 -16.3 °C -16.4 °C 34635.4 hPa ENE 11.1 km/h 19.6 km/h 98 % 0 mm
17:08 -16.3 °C -16.4 °C 34635.4 hPa NE 11.1 km/h 19.6 km/h 98 % 0 mm
17:13 -16.3 °C -16.4 °C 34635.4 hPa ESE 12.2 km/h 20.9 km/h 98 % 0 mm
17:18 -16.3 °C -16.4 °C 34635.4 hPa NE 8 km/h 20.9 km/h 98 % 0 mm
17:23 -16.3 °C -16.4 °C 34635.4 hPa ESE 9.8 km/h 19.2 km/h 98 % 0 mm
17:28 -16.3 °C -16.4 °C 34635.4 hPa NE 14 km/h 22.5 km/h 98 % 0 mm
17:33 -16.3 °C -16.5 °C 34635.4 hPa East 14.5 km/h 22.5 km/h 98 % 0 mm
17:38 -16.3 °C -16.5 °C 34635.4 hPa ENE 15 km/h 18.7 km/h 98 % 0 mm
17:43 -16.3 °C -16.5 °C 34635.4 hPa NE 12.7 km/h 17.9 km/h 98 % 0 mm
17:48 -16.3 °C -16.5 °C 34635.4 hPa ENE 12.7 km/h 16.3 km/h 98 % 0 mm
17:53 -16.3 °C -16.5 °C 34635.4 hPa East 14 km/h 18.7 km/h 98 % 0 mm
17:58 -16.4 °C -16.6 °C 34635.4 hPa East 14 km/h 18.7 km/h 98 % 0 mm
18:03 -16.4 °C -16.6 °C 34635.4 hPa ENE 14.5 km/h 20.9 km/h 98 % 0 mm
18:08 -16.4 °C -16.6 °C 34635.4 hPa East 15 km/h 20.9 km/h 98 % 0 mm
18:13 -16.5 °C -16.6 °C 34635.4 hPa East 10.3 km/h 18.7 km/h 98 % 0 mm
18:18 -16.5 °C -16.6 °C 34635.4 hPa ENE 16.9 km/h 19.6 km/h 98 % 0 mm
18:23 -16.5 °C -16.6 °C 34635.4 hPa ENE 8.9 km/h 19.6 km/h 98 % 0 mm
18:28 -16.5 °C -16.6 °C 34635.4 hPa East 11.1 km/h 17.9 km/h 98 % 0 mm
18:33 -16.5 °C -16.6 °C 34635.4 hPa East 12.7 km/h 15 km/h 98 % 0 mm
18:38 -16.5 °C -16.6 °C 34635.4 hPa ENE 20.9 km/h 20.9 km/h 98 % 0 mm
18:43 -16.5 °C -16.7 °C 34635.4 hPa ESE 19.2 km/h 20.9 km/h 98 % 0 mm
18:48 -16.5 °C -16.7 °C 34635.4 hPa ENE 15.6 km/h 22 km/h 98 % 0 mm
18:53 -16.6 °C -16.7 °C 34635.4 hPa ENE 6.9 km/h 22 km/h 98 % 0 mm
18:58 -16.6 °C -16.7 °C 34635.4 hPa NE 12.7 km/h 20.3 km/h 98 % 0 mm
19:03 -16.6 °C -16.8 °C 34635.4 hPa North 12.7 km/h 19.6 km/h 98 % 0 mm
19:06 -16.6 °C -16.8 °C 34635.4 hPa East 11.1 km/h 19.6 km/h 98 % 0 mm
19:11 -16.6 °C -16.8 °C 34635.4 hPa East 19.2 km/h 22.5 km/h 98 % 0 mm
19:16 -16.7 °C -16.8 °C 34635.4 hPa East 15.6 km/h 22.5 km/h 98 % 0 mm
19:21 -16.7 °C -16.8 °C 34635.4 hPa East 14.5 km/h 20.9 km/h 98 % 0 mm
19:26 -16.7 °C -16.9 °C 34635.4 hPa East 10.3 km/h 20.9 km/h 98 % 0 mm
19:31 -16.7 °C -16.9 °C 34635.4 hPa East 14.5 km/h 16.9 km/h 98 % 0 mm
19:36 -16.7 °C -16.9 °C 34635.4 hPa East 10.3 km/h 16.9 km/h 98 % 0 mm
19:41 -16.7 °C -16.9 °C 34635.4 hPa East 14 km/h 16.9 km/h 98 % 0 mm
19:46 -16.7 °C -16.9 °C 34635.4 hPa ENE 15 km/h 16.9 km/h 98 % 0 mm
19:51 -16.7 °C -16.9 °C 34635.4 hPa East 6.9 km/h 16.9 km/h 98 % 0 mm
19:56 -16.7 °C -16.9 °C 34635.4 hPa East 10.3 km/h 15 km/h 98 % 0 mm
20:01 -16.8 °C -16.9 °C 34635.4 hPa East 14 km/h 18.7 km/h 98 % 0 mm
20:06 -16.8 °C -16.9 °C 34635.4 hPa ENE 11.1 km/h 19.6 km/h 98 % 0 mm
20:11 -16.8 °C -16.9 °C 34635.4 hPa ESE 8 km/h 19.6 km/h 98 % 0 mm
20:16 -16.8 °C -16.9 °C 34635.4 hPa ESE 12.7 km/h 15.6 km/h 98 % 0 mm
20:21 -16.8 °C -16.9 °C 34635.4 hPa ENE 7.6 km/h 15 km/h 98 % 0 mm
20:26 -16.8 °C -16.9 °C 34635.4 hPa ENE 10.3 km/h 15.6 km/h 98 % 0 mm
20:31 -16.7 °C -16.9 °C 34635.4 hPa East 10.3 km/h 15.6 km/h 98 % 0 mm
20:35 -16.7 °C -16.9 °C 34635.4 hPa NE 16.3 km/h 16.9 km/h 98 % 0 mm
20:41 -16.8 °C -16.9 °C 34635.4 hPa ENE 16.3 km/h 20.3 km/h 98 % 0 mm
20:46 -16.8 °C -16.9 °C 34635.4 hPa NNE 16.9 km/h 26.7 km/h 98 % 0 mm
20:51 -16.7 °C -16.9 °C 34635.4 hPa East 12.7 km/h 26.7 km/h 98 % 0 mm
20:55 -16.7 °C -16.9 °C 34635.4 hPa ENE 16.3 km/h 20.9 km/h 98 % 0 mm
21:00 -16.7 °C -16.9 °C 34635.4 hPa ENE 15 km/h 22.5 km/h 98 % 0 mm
21:05 -16.7 °C -16.9 °C 34635.4 hPa ENE 7.6 km/h 22.5 km/h 98 % 0 mm
21:11 -16.7 °C -16.9 °C 34635.4 hPa ENE 10.3 km/h 16.9 km/h 98 % 0 mm
21:15 -16.7 °C -16.9 °C 34635.4 hPa NE 14.5 km/h 22 km/h 98 % 0 mm
21:21 -16.7 °C -16.9 °C 34635.4 hPa NE 14 km/h 22 km/h 98 % 0 mm
21:25 -16.7 °C -16.9 °C 34601.5 hPa ENE 19.2 km/h 22.5 km/h 98 % 0 mm
21:30 -16.7 °C -16.9 °C 34601.5 hPa ENE 7.6 km/h 22.5 km/h 98 % 0 mm
21:35 -16.7 °C -16.9 °C 34601.5 hPa ENE 8 km/h 19.2 km/h 98 % 0 mm
21:40 -16.7 °C -16.9 °C 34635.4 hPa NE 16.3 km/h 17.9 km/h 98 % 0 mm
21:45 -16.7 °C -17 °C 34635.4 hPa ENE 12.7 km/h 22 km/h 97 % 0 mm
21:50 -16.7 °C -17 °C 34635.4 hPa ENE 14 km/h 22 km/h 97 % 0 mm
21:55 -16.7 °C -17 °C 34635.4 hPa NE 15.6 km/h 20.9 km/h 97 % 0 mm
22:00 -16.8 °C -17.1 °C 34635.4 hPa NE 16.9 km/h 20.9 km/h 97 % 0 mm
22:05 -16.7 °C -17 °C 34635.4 hPa ENE 15.6 km/h 20.3 km/h 97 % 0 mm
22:10 -16.7 °C -17 °C 34635.4 hPa NE 15 km/h 16.9 km/h 97 % 0 mm
22:15 -16.7 °C -17 °C 34635.4 hPa NE 14.5 km/h 16.9 km/h 97 % 0 mm
22:20 -16.7 °C -17 °C 34635.4 hPa ENE 11.1 km/h 16.9 km/h 97 % 0 mm
22:25 -16.7 °C -17 °C 34635.4 hPa East 12.7 km/h 15.6 km/h 97 % 0 mm
22:27 -16.7 °C -17 °C 34635.4 hPa East 12.2 km/h 15.6 km/h 97 % 0 mm
22:32 -16.7 °C -17 °C 34635.4 hPa ENE 11.1 km/h 16.3 km/h 97 % 0 mm
22:37 -16.7 °C -17 °C 34635.4 hPa ENE 16.3 km/h 16.3 km/h 97 % 0 mm
22:42 -16.7 °C -17 °C 34635.4 hPa ENE 9.8 km/h 22 km/h 97 % 0 mm
22:47 -16.7 °C -17 °C 34635.4 hPa ENE 10.3 km/h 22 km/h 97 % 0 mm
22:52 -16.8 °C -17.1 °C 34635.4 hPa ENE 8.9 km/h 15.6 km/h 97 % 0 mm
22:57 -16.8 °C -17.1 °C 34635.4 hPa ENE 16.9 km/h 22.5 km/h 97 % 0 mm
23:02 -16.8 °C -17.1 °C 34635.4 hPa East 16.3 km/h 22.5 km/h 97 % 0 mm
23:07 -16.8 °C -17.1 °C 34635.4 hPa NE 9.8 km/h 19.6 km/h 97 % 0 mm
23:12 -16.9 °C -17.1 °C 34635.4 hPa ENE 14 km/h 20.9 km/h 97 % 0 mm
23:17 -17 °C -17.3 °C 34635.4 hPa ENE 14 km/h 20.9 km/h 97 % 0 mm
23:22 -17 °C -17.3 °C 34635.4 hPa ENE 8.9 km/h 16.9 km/h 96 % 0 mm
23:27 -17.1 °C -17.4 °C 34601.5 hPa ENE 15.6 km/h 16.9 km/h 96 % 0 mm
23:32 -17.1 °C -17.4 °C 34601.5 hPa NE 15.6 km/h 16.9 km/h 96 % 0 mm
23:37 -17.2 °C -17.4 °C 34601.5 hPa NE 14 km/h 19.6 km/h 97 % 0 mm
23:42 -17.2 °C -17.4 °C 34601.5 hPa NE 8.9 km/h 20.3 km/h 97 % 0 mm
23:47 -17.2 °C -17.4 °C 34601.5 hPa North 11.6 km/h 20.3 km/h 97 % 0 mm
23:55 -17.3 °C -17.6 °C 34635.4 hPa NNE 2.3 km/h 16.9 km/h 97 % 0 mm
Le Gheer Warneton
Courtoisie de Weather Underground - 2.25 mb

Mise a jour : 21/02/2018 12:07:11
Généré par Cumulus 1.9.4 (1099)